Weather History for KERI - April, 2014

Change the Weather History Date:

Sunday, April 27, 2014

  Actual Average Record
Temperature  
Mean Temperature 44 °F 51 °F  
Max Temperature 50 °F 61 °F 86 °F (2009)
Min Temperature 38 °F 42 °F 26 °F (1972)
Degree Days  
Heating Degree Days 21 14  
Month to date heating degree days 494 502  
Since 1 July heating degree days 6454 5778  
Cooling Degree Days 0 0  
Month to date cooling degree days 0 0  
Year to date cooling degree days 0 1  
Moisture  
Dew Point 31 °F    
Average Humidity 61    
Maximum Humidity 76    
Minimum Humidity 46    
Precipitation  
Precipitation 0.00 in 0.10 in 1.66 in (1954)
Month to date precipitation 2.90 3.02  
Year to date precipitation 11.98 11.31  
Snow  
Snow 0.00 in 0.00 in - ()
Month to date snowfall 1.2 3.2  
Since 1 July snowfall 138.4 100.9  
Snow Depth 0.00 in    
Sea Level Pressure  
Sea Level Pressure 30.14 in    
Wind  
Wind Speed 10 mph (NNE)    
Max Wind Speed 20 mph    
Max Gust Speed 25 mph    
Visibility 10 miles    
Events      
T = Trace of Precipitation, MM = Missing Value Source: NWS Daily Summary

Daily Weather History Graph

Daily Weather History Graph

Search for Another Location

Airport or City:

Trip Planner

Search our weather history database for the weather conditions in past years. The results will help you decide how hot, cold, wet, or windy it might be!

Date:

Astronomy

Apr. 27, 2014 Rise Set
Actual Time 6:22 AM EDT 8:15 PM EDT
Civil Twilight 5:52 AM EDT 8:45 PM EDT
Nautical Twilight 5:15 AM EDT 9:22 PM EDT
Astronomical Twilight 4:35 AM EDT 10:02 PM EDT
Moon 5:23 AM EDT (4/27) 6:46 PM EDT (4/27)
Length of Visible Light 14h 53m
Length of Day
13h 53m
Waning Crescent, 3% of the Moon is Illuminated
Apr 27
Waning Crescent
Apr 29
New
May 6
First Quarter
May 14
Full
May 21
Last Quarter

Hourly Weather History & Observations

Time (EDT) Temp. Windchill Dew Point Humidity Pressure Visibility Wind Dir Wind Speed Gust Speed Precip Events Conditions
12:51 AM 41.0 °F 38.0 °F 33.8 °F 76% 30.08 in 10.0 mi NNE 4.6 mph - N/A   Overcast
1:51 AM 41.0 °F 37.1 °F 30.9 °F 67% 30.09 in 10.0 mi NNE 5.8 mph - N/A   Overcast
2:51 AM 39.9 °F 35.8 °F 30.0 °F 68% 30.10 in 10.0 mi North 5.8 mph - N/A   Overcast
3:03 AM 39.2 °F 34.2 °F 30.2 °F 70% 30.08 in 10.0 mi North 6.9 mph - N/A   Overcast
3:51 AM 39.2 °F - 30.2 °F 70% 30.09 in 10.0 mi Calm Calm - N/A   Overcast
4:51 AM 39.0 °F 35.7 °F 28.9 °F 67% 30.11 in 10.0 mi North 4.6 mph - N/A   Clear
5:51 AM 37.9 °F 33.5 °F 30.0 °F 73% 30.12 in 10.0 mi North 5.8 mph - N/A   Clear
6:51 AM 37.4 °F 32.1 °F 30.2 °F 75% 30.12 in 10.0 mi North 6.9 mph - N/A   Clear
7:51 AM 39.9 °F 33.9 °F 30.9 °F 70% 30.16 in 10.0 mi NNE 9.2 mph - N/A   Clear
8:51 AM 39.9 °F 35.8 °F 32.0 °F 73% 30.17 in 10.0 mi North 5.8 mph - N/A   Mostly Cloudy
9:51 AM 42.1 °F 36.1 °F 32.0 °F 67% 30.18 in 10.0 mi NE 10.4 mph - N/A   Overcast
10:01 AM 42.8 °F 36.6 °F 30.2 °F 61% 30.16 in 10.0 mi NE 11.5 mph - N/A   Overcast
10:39 AM 44.6 °F 40.2 °F 28.4 °F 53% 30.17 in 10.0 mi NNE 8.1 mph - N/A   Scattered Clouds
10:51 AM 44.1 °F 41.5 °F 30.0 °F 58% 30.19 in 10.0 mi NNE 4.6 mph - N/A   Clear
11:51 AM 43.0 °F 37.2 °F 32.0 °F 65% 30.19 in 10.0 mi NNE 10.4 mph - N/A   Clear
12:51 PM 45.0 °F 39.7 °F 32.0 °F 60% 30.18 in 10.0 mi North 10.4 mph - N/A   Clear
1:51 PM 45.0 °F 38.9 °F 30.9 °F 58% 30.17 in 10.0 mi NNE 12.7 mph - N/A   Clear
2:51 PM 48.0 °F - 33.1 °F 56% 30.15 in 10.0 mi NNE 12.7 mph 19.6 mph N/A   Clear
3:51 PM 48.0 °F - 32.0 °F 54% 30.13 in 10.0 mi NE 15.0 mph 21.9 mph N/A   Clear
4:51 PM 50.0 °F - 30.9 °F 48% 30.13 in 10.0 mi NNE 16.1 mph 24.2 mph N/A   Clear
5:51 PM 48.0 °F - 30.0 °F 50% 30.13 in 10.0 mi NE 15.0 mph 23.0 mph N/A   Clear
6:51 PM 48.9 °F - 30.0 °F 48% 30.13 in 10.0 mi NE 17.3 mph 23.0 mph N/A   Clear
7:51 PM 46.9 °F - 30.0 °F 52% 30.13 in 10.0 mi NE 10.4 mph - N/A   Clear
8:51 PM 45.0 °F 40.1 °F 30.0 °F 56% 30.16 in 10.0 mi NE 9.2 mph - N/A   Clear
9:51 PM 44.1 °F 38.6 °F 30.0 °F 58% 30.16 in 10.0 mi ENE 10.4 mph - N/A   Clear
10:51 PM 44.6 °F 38.8 °F 28.4 °F 53% 30.14 in 10.0 mi ENE 11.5 mph - N/A   Clear
11:51 PM 44.6 °F 40.2 °F 28.4 °F 53% 30.12 in 10.0 mi ENE 8.1 mph - N/A   Clear